User: anonymous
Location: Unspecified
(0.0000°N, 0.0000°E)
Time: 02:54:58
(UTC+02:00)
Language:

Cosmos 2251 - Orbit

View from above orbital plane
View from above orbital plane
View from above satellite
View from above satellite

Ground track
Ground track

The orbit data is extracted from the following two-line orbital elements,

1 22675U 93036A   14257.45507412  .00000125  00000-0  55786-4 0  3458
2 22675 074.0384 253.2416 0026165 258.4631 254.9588 14.32341282109889
Epoch (UTC): 14 September 2014 10:55:18
Eccentricity: 0.0026165
inclination: 74.0384°
perigee height: 765 km
apogee height: 802 km
right ascension of ascending node: 253.2416°
argument of perigee: 258.4631°
revolutions per day: 14.32341282
mean anomaly at epoch: 254.9588°
orbit number at epoch: 10988

The dashed part of the orbit path shows where the satellite is in the earth's shadow,  

DLR